Wind_Speed
10 10 10 9 9 8 9 9 9 9 9 8 8 8 8 8 8 9 9 8 8 8 9 9 9 8 8 8 8 9 9 10 10 10 10 10 10 9 9 10 10 10 10
10 10 9 9 8 8 8 8 8 8 8 8 9 9 9 9 9 9 9 9 8 8 9 9 9 9 9 9 9 9 9 10 11 11 11 11 11 11 11 11 11 11 10
9 9 9 9 9 8 8 8 8 8 8 8 9 9 9 9 9 9 9 9 9 9 10 10 10 10 9 9 10 10 10 10 11 11 11 11 11 11 11 11 11 11 11
9 9 9 9 9 9 8 9 9 8 8 8 8 8 8 8 8 9 9 10 10 10 10 11 11 11 10 10 11 11 11 11 11 12 12 12 12 12 12 12 11 11 11
9 9 10 10 9 9 9 9 9 9 9 9 9 9 8 9 9 9 9 10 10 10 10 11 11 11 11 11 11 11 12 11 12 12 13 13 13 13 13 13 12 12 12
10 10 10 10 10 9 9 10 10 10 10 10 10 9 9 9 9 10 10 10 11 11 11 11 11 11 11 11 11 12 12 12 12 12 12 13 13 13 13 13 13 13 13
11 10 10 10 11 10 10 10 11 10 11 10 10 10 10 10 10 11 11 11 11 12 12 12 12 11 11 11 11 12 13 13 12 12 12 12 13 13 13 13 13 13 13
11 10 10 10 10 10 10 10 10 11 11 11 12 12 11 11 11 11 11 12 11 11 11 11 11 11 11 12 12 12 12 12 12 12 12 12 13 13 12 13 13 13 14
12 11 10 11 11 11 11 11 11 12 12 12 12 12 11 11 11 11 12 12 11 11 11 11 11 11 11 11 12 13 13 13 13 13 13 12 12 12 12 13 13 14 14
11 11 11 11 10 11 11 11 11 12 12 12 12 11 11 11 11 11 12 12 11 11 11 11 11 11 12 12 12 13 13 13 13 13 13 13 13 12 12 12 13 14 14
12 11 10 10 10 10 11 11 11 11 12 11 11 11 11 11 11 11 11 10 10 10 11 11 11 11 12 11 11 11 12 12 13 14 13 13 13 12 12 12 13 14 14
13 12 11 11 11 11 11 11 11 11 11 11 11 11 11 11 11 11 11 10 10 10 11 11 11 11 11 11 11 11 12 13 13 13 12 12 12 13 13 12 12 12 14
13 12 12 12 12 12 12 12 12 11 11 11 11 11 11 12 11 11 12 12 11 11 11 11 12 12 12 11 11 12 12 12 12 11 11 11 12 12 12 12 13 13 14
13 13 13 13 13 13 13 12 12 12 12 12 12 13 12 12 12 12 12 12 12 12 12 12 12 13 13 11 12 12 11 11 11 11 11 11 11 11 13 13 13 14 14
15 15 15 14 14 14 14 13 13 14 14 13 13 13 14 14 14 14 14 14 13 13 14 14 13 13 13 12 12 13 13 12 12 12 11 11 11 12 13 13 13 14 14
16 16 16 16 15 16 16 15 15 15 15 15 15 14 14 15 15 15 15 15 15 14 15 15 14 14 14 13 13 13 14 13 12 12 12 12 12 13 13 14 14 15 15
17 17 17 17 17 16 16 17 17 17 17 16 16 16 16 16 16 16 16 16 16 16 16 16 15 15 15 15 14 14 14 14 14 13 13 13 14 14 14 15 16 16 17
19 19 18 19 19 19 18 18 18 19 19 18 18 18 18 17 18 17 17 18 18 18 17 17 17 16 16 17 16 16 16 16 16 16 15 15 15 15 15 16 16 17 17
20 20 21 20 21 21 21 20 20 21 21 20 20 20 20 19 19 19 19 19 19 19 19 19 18 18 18 18 18 18 16 16 16 16 17 17 17 16 16 17 17 18 18
22 23 23 22 22 23 22 22 22 22 22 22 22 22 21 21 21 21 21 21 21 21 21 21 21 21 20 19 19 19 19 19 18 18 18 18 18 18 18 18 18 19 19
25 25 24 24 23 23 24 24 24 23 24 23 23 23 23 23 23 23 23 22 22 23 23 22 22 22 22 21 21 21 21 21 20 20 20 20 20 20 20 19 19 19 19
25 25 25 25 24 24 24 24 25 25 25 24 24 24 25 25 25 25 25 25 24 24 24 24 24 23 23 23 23 23 23 22 22 22 22 22 22 21 21 21 21 20 21
25 25 25 25 25 25 26 26 26 26 26 26 26 26 25 26 27 27 27 27 27 27 26 26 25 25 25 25 25 25 25 24 24 24 24 24 24 23 23 23 22 22 22
25 26 26 26 27 27 27 27 27 28 27 27 27 28 28 27 28 28 28 28 29 29 29 29 28 28 28 28 28 27 27 26 26 26 25 25 25 24 24 24 24 23 23
26 27 28 28 28 28 28 28 29 29 29 29 29 29 29 29 29 29 29 29 30 30 30 30 30 30 29 29 29 29 29 29 28 27 27 26 26 25 25 25 25 25 24
27 28 28 28 29 29 30 30 30 30 30 30 30 30 31 31 31 31 31 30 30 31 31 30 30 30 30 30 30 31 31 30 30 29 28 28 28 27 26 26 26 27 26
Wind_Direction
275 273 274 273 275 276 277 278 280 280 277 278 282 285 285 283 285 290 283 282 283 289 292 291 290 288 284 282 279 276 270 269 266 263 260 258 257 255 256 257 257 257 259
271 268 267 266 268 272 274 274 274 276 274 275 278 281 280 282 283 290 288 285 278 283 288 290 290 289 279 278 279 277 272 268 266 266 264 262 260 258 257 257 257 256 257
268 266 268 266 266 268 271 271 274 277 279 280 283 285 282 285 285 288 289 284 278 279 282 284 285 282 280 277 277 276 274 269 266 266 266 264 261 260 259 258 258 256 255
273 269 268 266 266 268 270 270 273 276 281 284 287 287 286 289 290 289 289 288 285 282 283 285 283 283 281 280 279 277 273 268 265 265 265 263 262 261 259 258 256 255 255
281 277 268 267 269 268 269 269 270 274 278 281 284 286 288 288 290 289 294 296 292 289 287 287 285 284 285 285 281 281 278 274 270 266 264 264 261 259 259 257 256 255 256
280 280 274 268 267 270 271 269 270 275 279 282 283 285 287 288 289 290 293 294 293 292 289 288 285 284 284 284 283 282 281 276 273 268 267 267 263 260 258 258 257 256 256
276 279 277 268 266 268 270 270 273 274 276 278 281 285 288 288 289 290 292 292 292 292 289 288 285 284 285 282 284 284 281 275 274 270 270 269 266 261 257 257 258 259 257
276 279 277 272 272 271 272 270 272 274 276 277 279 281 284 285 288 289 292 292 291 291 291 290 286 286 285 286 285 283 281 276 276 274 273 271 267 261 258 256 258 259 257
275 276 276 273 273 276 275 274 273 274 276 279 278 279 283 286 288 289 291 292 293 294 293 291 288 289 288 292 289 282 281 278 277 275 272 270 267 264 261 260 261 260 259
278 277 272 272 273 276 277 276 276 276 277 279 279 279 281 286 288 289 291 292 292 292 294 292 290 291 293 294 287 284 284 281 277 275 271 269 267 263 263 263 263 261 259
277 275 273 273 274 277 280 283 283 280 279 278 279 280 282 285 288 290 293 294 293 294 296 295 292 291 294 296 290 286 286 285 283 280 273 268 262 258 260 264 263 262 261
275 273 274 276 276 278 281 284 286 281 278 277 280 281 283 286 289 291 291 293 293 294 296 297 296 294 295 297 291 289 288 288 286 285 276 272 264 260 261 263 263 264 262
274 275 276 277 277 277 279 280 284 283 279 278 280 281 285 285 287 290 290 291 293 293 293 295 294 294 296 299 295 293 291 288 287 286 281 276 271 261 260 260 261 262 263
273 275 277 277 277 277 278 279 281 280 278 279 281 280 282 285 285 289 290 290 291 291 291 291 291 291 293 298 299 298 296 290 290 286 281 278 275 266 262 261 263 263 263
272 275 277 278 278 278 278 278 279 278 277 277 278 278 278 281 283 284 286 286 288 288 287 288 288 289 293 297 299 297 295 292 288 284 282 280 277 273 264 262 266 267 266
268 269 271 275 276 277 278 277 277 278 279 277 277 279 280 281 282 282 282 284 285 287 288 286 287 288 289 293 294 293 291 290 287 285 286 285 283 277 270 267 267 269 269
269 268 268 273 275 277 278 277 276 276 277 279 279 277 277 280 282 282 281 283 283 284 285 284 284 285 285 287 289 289 289 286 284 282 281 282 282 281 277 275 270 269 270
270 269 268 271 273 274 275 277 275 274 275 277 279 281 281 280 279 280 281 280 281 281 282 283 283 283 284 286 288 288 287 283 281 282 282 282 282 281 281 281 275 271 271
271 270 273 273 273 273 273 275 274 273 274 275 277 278 280 281 281 280 281 281 281 281 281 281 283 283 283 283 284 286 285 283 281 281 282 282 282 283 281 280 279 276 273
271 271 273 272 271 271 272 273 273 273 274 275 275 276 277 279 280 279 278 278 280 280 279 279 281 282 283 283 283 284 284 283 281 279 280 281 281 282 280 279 280 278 275
272 272 272 272 271 271 272 273 272 273 274 274 274 274 275 277 278 277 277 277 278 278 279 279 280 280 279 281 282 282 282 283 282 279 280 280 280 280 280 278 278 277 276
272 271 273 272 271 272 272 273 273 273 273 272 273 273 276 276 276 276 276 276 277 278 278 278 279 278 278 278 280 280 280 280 280 278 279 279 280 278 278 277 276 275 275
272 271 271 271 271 272 271 272 273 273 273 273 272 273 276 276 275 274 276 276 276 277 277 277 277 277 277 277 277 278 278 279 278 276 277 277 277 277 277 277 276 275 275
272 272 271 270 271 272 272 272 272 273 273 273 273 273 274 275 276 275 276 276 275 275 276 276 276 276 276 276 276 276 277 276 277 275 274 274 275 275 274 275 275 276 276
272 271 271 270 270 272 273 273 273 274 273 273 273 273 273 274 275 276 276 275 275 274 275 275 275 275 275 276 276 275 275 275 275 274 274 274 274 273 274 275 275 275 275
273 273 273 272 272 272 273 272 273 274 274 274 274 273 272 272 273 275 276 276 276 275 275 275 275 274 274 274 275 275 275 274 273 272 272 272 273 273 273 274 275 275 275
Height
5847 5847 5847 5847 5848 5848 5848 5848 5849 5849 5849 5849 5849 5849 5850 5850 5849 5849 5849 5849 5849 5849 5849 5849 5849 5848 5848 5848 5848 5848 5848 5848 5848 5849 5849 5850 5851 5851 5852 5852 5853 5853 5854
5844 5845 5845 5845 5846 5846 5846 5847 5847 5847 5847 5847 5847 5848 5848 5848 5848 5847 5847 5847 5847 5847 5847 5847 5846 5846 5846 5846 5846 5846 5846 5846 5846 5846 5847 5847 5848 5848 5849 5850 5850 5851 5851
5841 5842 5843 5843 5844 5844 5844 5845 5845 5845 5845 5845 5846 5846 5846 5846 5846 5845 5845 5845 5845 5845 5845 5844 5844 5844 5843 5843 5843 5843 5843 5843 5843 5843 5844 5844 5845 5845 5846 5847 5847 5848 5849
5838 5839 5840 5841 5841 5842 5843 5843 5843 5844 5844 5844 5844 5844 5844 5844 5844 5843 5843 5843 5843 5843 5843 5842 5842 5841 5841 5840 5840 5840 5840 5840 5840 5840 5841 5841 5842 5842 5843 5844 5844 5845 5846
5836 5836 5837 5838 5839 5840 5840 5841 5841 5842 5842 5842 5842 5842 5842 5842 5842 5842 5841 5841 5840 5840 5840 5840 5839 5838 5838 5838 5837 5837 5837 5837 5837 5837 5837 5838 5838 5839 5839 5840 5841 5842 5843
5834 5834 5835 5835 5837 5838 5838 5839 5839 5839 5840 5840 5840 5840 5840 5840 5840 5839 5839 5839 5838 5838 5837 5837 5836 5836 5835 5835 5834 5834 5833 5833 5833 5833 5834 5834 5834 5835 5836 5837 5838 5839 5840
5832 5832 5832 5833 5835 5835 5836 5836 5837 5837 5838 5838 5838 5838 5838 5837 5837 5837 5836 5836 5836 5835 5834 5834 5834 5833 5833 5832 5831 5831 5830 5830 5830 5830 5830 5830 5831 5831 5832 5833 5834 5836 5837
5830 5830 5830 5831 5832 5833 5833 5834 5834 5835 5835 5835 5836 5836 5836 5836 5835 5834 5834 5833 5833 5832 5831 5831 5831 5830 5830 5829 5828 5828 5827 5827 5827 5827 5827 5827 5827 5828 5829 5830 5831 5832 5833
5827 5827 5828 5829 5830 5830 5831 5831 5832 5832 5833 5833 5833 5833 5833 5833 5832 5832 5831 5830 5830 5829 5829 5828 5828 5827 5826 5826 5825 5825 5824 5824 5824 5823 5823 5823 5824 5825 5825 5826 5827 5828 5829
5824 5825 5826 5827 5827 5828 5828 5829 5829 5829 5830 5830 5830 5829 5830 5829 5829 5829 5828 5828 5827 5826 5826 5825 5825 5824 5823 5822 5822 5822 5821 5821 5820 5820 5819 5819 5820 5821 5822 5823 5823 5824 5826
5822 5822 5823 5824 5825 5825 5826 5826 5826 5827 5827 5827 5827 5827 5827 5826 5826 5826 5826 5825 5825 5824 5823 5822 5822 5821 5820 5819 5819 5818 5817 5817 5816 5815 5815 5815 5816 5817 5818 5819 5819 5820 5822
5819 5820 5821 5821 5822 5823 5823 5823 5824 5824 5824 5824 5824 5824 5824 5824 5823 5823 5823 5822 5822 5821 5821 5820 5819 5818 5818 5817 5816 5815 5814 5813 5812 5811 5810 5811 5812 5813 5815 5815 5816 5817 5818
5817 5818 5818 5819 5819 5820 5820 5820 5821 5821 5821 5821 5821 5821 5821 5821 5821 5820 5820 5819 5819 5819 5818 5817 5816 5815 5815 5814 5813 5812 5811 5810 5809 5808 5807 5808 5809 5810 5811 5812 5813 5813 5814
5815 5815 5815 5816 5817 5817 5817 5817 5818 5818 5818 5818 5818 5818 5818 5818 5817 5817 5817 5817 5816 5816 5815 5814 5813 5812 5811 5811 5810 5809 5808 5807 5806 5805 5805 5805 5806 5807 5807 5808 5809 5810 5811
5812 5812 5812 5813 5813 5814 5814 5814 5814 5814 5814 5814 5814 5814 5814 5814 5814 5813 5813 5813 5813 5812 5812 5811 5810 5809 5808 5808 5807 5806 5805 5804 5804 5803 5803 5803 5803 5804 5804 5805 5805 5806 5807
5808 5808 5809 5809 5810 5810 5810 5810 5811 5810 5810 5810 5810 5810 5810 5810 5810 5810 5809 5809 5809 5809 5808 5807 5807 5806 5805 5805 5804 5803 5802 5802 5801 5801 5801 5800 5800 5801 5801 5801 5802 5802 5803
5804 5804 5805 5805 5806 5806 5806 5806 5806 5806 5806 5806 5806 5806 5806 5806 5806 5805 5805 5805 5805 5804 5804 5803 5803 5802 5802 5801 5800 5800 5799 5798 5798 5798 5797 5797 5797 5797 5797 5797 5797 5798 5798
5799 5799 5800 5800 5800 5801 5801 5801 5801 5802 5802 5801 5801 5801 5801 5801 5801 5801 5801 5800 5800 5800 5800 5799 5799 5798 5798 5797 5796 5796 5795 5795 5794 5794 5793 5793 5793 5793 5793 5793 5793 5793 5793
5793 5794 5794 5795 5795 5795 5796 5796 5796 5796 5796 5796 5796 5796 5796 5796 5796 5796 5796 5795 5795 5795 5795 5794 5794 5793 5793 5792 5792 5791 5791 5790 5790 5789 5789 5789 5789 5789 5788 5788 5788 5788 5788
5788 5788 5788 5788 5789 5789 5790 5790 5790 5790 5790 5791 5791 5791 5790 5790 5790 5790 5790 5790 5790 5789 5789 5789 5788 5788 5787 5787 5787 5786 5786 5785 5785 5785 5785 5784 5784 5784 5784 5783 5783 5783 5783
5781 5781 5782 5782 5782 5783 5783 5783 5784 5784 5784 5784 5784 5784 5784 5784 5784 5784 5784 5783 5783 5783 5783 5783 5782 5782 5782 5781 5781 5781 5780 5780 5780 5779 5779 5779 5779 5779 5778 5778 5778 5777 5777
5774 5774 5774 5775 5775 5776 5776 5776 5777 5777 5777 5777 5777 5777 5778 5778 5777 5777 5777 5776 5776 5776 5776 5776 5776 5775 5775 5775 5775 5774 5774 5774 5774 5774 5773 5773 5773 5773 5772 5772 5772 5771 5771
5767 5767 5767 5767 5768 5768 5768 5768 5769 5769 5769 5770 5770 5770 5770 5770 5770 5769 5769 5769 5769 5768 5768 5768 5768 5768 5768 5768 5767 5767 5767 5767 5767 5767 5766 5766 5766 5766 5766 5765 5765 5765 5765
5759 5759 5759 5760 5760 5760 5760 5760 5760 5761 5761 5762 5762 5762 5762 5762 5762 5761 5761 5761 5760 5760 5760 5760 5760 5760 5759 5759 5759 5759 5759 5759 5759 5758 5758 5758 5758 5758 5758 5758 5758 5758 5757
5751 5751 5751 5751 5751 5752 5752 5752 5752 5752 5753 5753 5753 5753 5753 5753 5753 5753 5752 5752 5752 5751 5751 5751 5751 5750 5750 5750 5750 5750 5750 5750 5750 5750 5750 5750 5750 5750 5750 5751 5750 5750 5750
5742 5742 5742 5742 5742 5743 5743 5743 5743 5743 5744 5744 5744 5744 5744 5744 5744 5743 5743 5743 5743 5742 5742 5741 5741 5741 5741 5741 5740 5740 5740 5741 5741 5741 5741 5741 5741 5741 5742 5743 5742 5742 5742